| time (UTC) | temp F | wind direction | speed MPH | gust MPH | rain 1hr in | rain 24hr in | rain mn in | humidity % | barometer mb |
| 20260906095503 | 72 | 20 | 1.0 | 6.0 | 0.00 | 0.00 | 0.00 | 96 | 1012.8 |
| 20260906095003 | 72 | 24 | 3.0 | 7.0 | 0.00 | 0.00 | 0.00 | 96 | 1012.8 |
| 20260906094504 | 72 | 35 | 3.0 | 8.0 | 0.00 | 0.00 | 0.00 | 95 | 1012.8 |
| 20260906093004 | 72 | 28 | 1.0 | 7.0 | 0.00 | 0.00 | 0.00 | 95 | 1012.7 |
| 20260906092504 | 72 | 333 | 2.0 | 7.0 | 0.00 | 0.00 | 0.00 | 95 | 1012.7 |
| 20260906092003 | 72 | 0 | 1.0 | 3.0 | 0.00 | 0.00 | 0.00 | 95 | 1012.7 |
| 20260906091004 | 72 | 26 | 2.0 | 6.0 | 0.00 | 0.00 | 0.00 | 95 | 1012.6 |
| 20260906090004 | 72 | 46 | 0.0 | 7.0 | 0.00 | 0.00 | 0.00 | 95 | 1012.4 |
| 20260906083503 | 72 | 25 | 1.0 | 6.0 | 0.00 | 0.00 | 0.00 | 95 | 1012.5 |
| 20260906082504 | 72 | 22 | 3.0 | 7.0 | 0.00 | 0.00 | 0.00 | 95 | 1012.3 |
| 20260906082004 | 72 | 0 | 1.0 | 6.0 | 0.00 | 0.00 | 0.00 | 95 | 1012.2 |
| 20260906075504 | 72 | 40 | 1.0 | 5.0 | 0.00 | 0.00 | 0.00 | 94 | 1012.2 |
| 20260906075004 | 72 | 38 | 0.0 | 5.0 | 0.00 | 0.00 | 0.00 | 94 | 1012.2 |
| 20260906072004 | 72 | 321 | 2.0 | 6.0 | 0.00 | 0.00 | 0.00 | 93 | 1012.3 |
| 20260906071504 | 72 | 344 | 1.0 | 3.0 | 0.00 | 0.00 | 0.00 | 93 | 1012.3 |
| 20260906071003 | 72 | 336 | 1.0 | 3.0 | 0.00 | 0.00 | 0.00 | 93 | 1012.3 |
| 20260906070004 | 72 | 333 | 0.0 | 3.0 | 0.00 | 0.00 | 0.00 | 93 | 1012.2 |
| 20260906065504 | 72 | 350 | 0.0 | 3.0 | 0.00 | 0.00 | 0.00 | 93 | 1012.3 |
| 20260906064504 | 72 | 355 | 0.0 | 3.0 | 0.00 | 0.00 | 0.00 | 93 | 1012.4 |
| 20260906064004 | 72 | 5 | 0.0 | 5.0 | 0.00 | 0.00 | 0.00 | 92 | 1012.5 |
| 20260906063504 | 72 | 7 | 1.0 | 5.0 | 0.00 | 0.00 | 0.00 | 92 | 1012.4 |
| 20260906062004 | 73 | 350 | 0.0 | 3.0 | 0.00 | 0.00 | 0.00 | 91 | 1012.4 |
| 20260906061503 | 73 | 349 | 0.0 | 3.0 | 0.00 | 0.00 | 0.00 | 91 | 1012.5 |
| 20260906061003 | 73 | 348 | 0.0 | 3.0 | 0.00 | 0.00 | 0.00 | 91 | 1012.5 |
| 20260906055504 | 73 | 355 | 0.0 | 3.0 | 0.00 | 0.00 | 0.00 | 90 | 1012.6 |
| 20260906054004 | 73 | 340 | 0.0 | 3.0 | 0.00 | 0.00 | 0.00 | 89 | 1012.5 |
| 20260906053503 | 74 | 341 | 0.0 | 5.0 | 0.00 | 0.00 | 0.00 | 89 | 1012.5 |
| 20260906053003 | 74 | 341 | 0.0 | 5.0 | 0.00 | 0.00 | 0.00 | 89 | 1012.4 |
| 20260906052503 | 74 | 24 | 0.0 | 3.0 | 0.00 | 0.00 | 0.00 | 88 | 1012.5 |
| 20260906050004 | 75 | 335 | 0.0 | 3.0 | 0.00 | 0.00 | 0.00 | 87 | 1012.3 |
| 20260906045504 | 75 | 341 | 0.0 | 5.0 | 0.00 | 0.00 | 0.00 | 86 | 1012.4 |
| 20260906044003 | 75 | 28 | 1.0 | 8.0 | 0.00 | 0.00 | 0.00 | 84 | 1012.2 |
| 20260906042504 | 76 | 350 | 0.0 | 5.0 | 0.00 | 0.00 | 0.00 | 82 | 1012.1 |
| 20260906041504 | 76 | 5 | 0.0 | 5.0 | 0.00 | 0.00 | 0.00 | 81 | 1011.9 |
| 20260906040504 | 77 | 15 | 2.0 | 10.0 | 0.00 | 0.00 | 0.00 | 80 | 1012.1 |
| 20260906035504 | 77 | 28 | 4.0 | 10.0 | 0.00 | 0.00 | 0.00 | 80 | 1012.0 |
| 20260906035004 | 78 | 37 | 2.0 | 8.0 | 0.00 | 0.00 | 0.00 | 80 | 1012.0 |
| 20260906034004 | 78 | 6 | 1.0 | 7.0 | 0.00 | 0.00 | 0.00 | 80 | 1012.1 |
| 20260906032504 | 79 | 39 | 1.0 | 10.0 | 0.00 | 0.00 | 0.00 | 79 | 1011.8 |
| 20260906032004 | 79 | 31 | 2.0 | 10.0 | 0.00 | 0.00 | 0.00 | 78 | 1011.8 |
| 20260906031504 | 79 | 348 | 2.0 | 9.0 | 0.00 | 0.00 | 0.00 | 77 | 1011.7 |
| 20260906025504 | 80 | 15 | 0.0 | 7.0 | 0.00 | 0.00 | 0.00 | 76 | 1011.5 |
| 20260906024504 | 80 | 29 | 2.0 | 6.0 | 0.00 | 0.00 | 0.00 | 75 | 1011.5 |
| 20260906024003 | 81 | 14 | 1.0 | 8.0 | 0.00 | 0.00 | 0.00 | 75 | 1011.6 |
| 20260906022504 | 81 | 0 | 2.0 | 6.0 | 0.00 | 0.00 | 0.00 | 74 | 1011.3 |
| 20260906022004 | 81 | 30 | 2.0 | 6.0 | 0.00 | 0.00 | 0.00 | 74 | 1011.2 |
| 20260906020004 | 82 | 15 | 3.0 | 12.0 | 0.00 | 0.00 | 0.00 | 76 | 1010.9 |
| 20260906014504 | 83 | 38 | 1.0 | 6.0 | 0.00 | 0.00 | 0.00 | 79 | 1010.7 |
| 20260906014004 | 83 | 31 | 1.0 | 7.0 | 0.00 | 0.00 | 0.00 | 79 | 1010.6 |
| 20260906013504 | 83 | 47 | 1.0 | 7.0 | 0.00 | 0.00 | 0.00 | 79 | 1010.5 |
| 20260906013005 | 84 | 347 | 3.0 | 8.0 | 0.00 | 0.00 | 0.00 | 78 | 1010.4 |
| 20260906012004 | 84 | 16 | 3.0 | 8.0 | 0.00 | 0.00 | 0.00 | 78 | 1010.2 |
| 20260906010504 | 84 | 326 | 1.0 | 6.0 | 0.00 | 0.00 | 0.00 | 77 | 1009.9 |
| 20260906010003 | 84 | 330 | 0.0 | 5.0 | 0.00 | 0.00 | 0.00 | 77 | 1009.8 |
| 20260906003504 | 85 | 327 | 0.0 | 6.0 | 0.00 | 0.00 | 0.00 | 74 | 1009.8 |
| 20260906003004 | 86 | 332 | 2.0 | 5.0 | 0.00 | 0.00 | 0.00 | 74 | 1009.8 |
| 20260905235003 | 88 | 327 | 0.0 | 6.0 | 0.00 | 0.00 | 0.00 | 69 | 1009.6 |
| 20260905234004 | 88 | 329 | 0.0 | 5.0 | 0.00 | 0.00 | 0.00 | 67 | 1009.6 |
| 20260905233503 | 89 | 331 | 2.0 | 5.0 | 0.00 | 0.00 | 0.00 | 67 | 1009.4 |
| 20260905233004 | 89 | 334 | 1.0 | 5.0 | 0.00 | 0.00 | 0.00 | 67 | 1009.5 |
| 20260905232004 | 89 | 330 | 0.0 | 7.0 | 0.00 | 0.00 | 0.00 | 66 | 1009.5 |
| 20260905231503 | 90 | 336 | 0.0 | 2.0 | 0.00 | 0.00 | 0.00 | 66 | 1009.5 |
| 20260905231004 | 90 | 336 | 0.0 | 2.0 | 0.00 | 0.00 | 0.00 | 65 | 1009.5 |
| 20260905224504 | 91 | 338 | 0.0 | 3.0 | 0.00 | 0.00 | 0.00 | 61 | 1009.3 |
| 20260905223504 | 91 | 336 | 0.0 | 3.0 | 0.00 | 0.00 | 0.00 | 61 | 1009.3 |
| 20260905223004 | 91 | 345 | 0.0 | 6.0 | 0.00 | 0.00 | 0.00 | 60 | 1009.2 |
| 20260905222004 | 92 | 0 | 1.0 | 3.0 | 0.00 | 0.00 | 0.00 | 59 | 1009.3 |
| 20260905221503 | 92 | 332 | 1.0 | 5.0 | 0.00 | 0.00 | 0.00 | 58 | 1009.4 |
| 20260905221004 | 92 | 350 | 2.0 | 5.0 | 0.00 | 0.00 | 0.00 | 58 | 1009.3 |
| 20260905215004 | 93 | 341 | 1.0 | 8.0 | 0.00 | 0.00 | 0.00 | 55 | 1009.3 |
| 20260905214504 | 93 | 324 | 1.0 | 8.0 | 0.00 | 0.00 | 0.00 | 55 | 1009.3 |
| 20260905214004 | 93 | 325 | 2.0 | 8.0 | 0.00 | 0.00 | 0.00 | 54 | 1009.3 |
| 20260905213004 | 94 | 325 | 0.0 | 6.0 | 0.00 | 0.00 | 0.00 | 56 | 1009.3 |
| 20260905212504 | 94 | 328 | 1.0 | 6.0 | 0.00 | 0.00 | 0.00 | 54 | 1009.4 |
| 20260905211504 | 94 | 12 | 1.0 | 6.0 | 0.00 | 0.00 | 0.00 | 51 | 1009.3 |
| 20260905210504 | 95 | 328 | 1.0 | 7.0 | 0.00 | 0.00 | 0.00 | 50 | 1009.4 |
| 20260905210004 | 95 | 330 | 1.0 | 8.0 | 0.00 | 0.00 | 0.00 | 49 | 1009.4 |
| 20260905205003 | 95 | 334 | 1.0 | 8.0 | 0.00 | 0.00 | 0.00 | 51 | 1009.5 |
| 20260905204004 | 95 | 319 | 2.0 | 12.0 | 0.00 | 0.00 | 0.00 | 50 | 1009.7 |
| 20260905202504 | 96 | 331 | 2.0 | 12.0 | 0.00 | 0.00 | 0.00 | 47 | 1009.7 |
| 20260905201503 | 97 | 38 | 2.0 | 7.0 | 0.00 | 0.00 | 0.00 | 44 | 1009.9 |
| 20260905201003 | 97 | 281 | 0.0 | 7.0 | 0.00 | 0.00 | 0.00 | 44 | 1009.9 |
| 20260905200504 | 97 | 261 | 1.0 | 6.0 | 0.00 | 0.00 | 0.00 | 46 | 1009.9 |
| 20260905200004 | 97 | 322 | 3.0 | 8.0 | 0.00 | 0.00 | 0.00 | 46 | 1009.9 |
| 20260905194503 | 98 | 275 | 0.0 | 6.0 | 0.00 | 0.00 | 0.00 | 46 | 1009.9 |
| 20260905194004 | 97 | 251 | 1.0 | 6.0 | 0.00 | 0.00 | 0.00 | 47 | 1009.8 |
| 20260905193504 | 97 | 347 | 0.0 | 5.0 | 0.00 | 0.00 | 0.00 | 46 | 1009.9 |
| 20260905193004 | 97 | 279 | 1.0 | 6.0 | 0.00 | 0.00 | 0.00 | 45 | 1010.0 |
| 20260905192504 | 97 | 277 | 2.0 | 7.0 | 0.00 | 0.00 | 0.00 | 46 | 1010.0 |
| 20260905192004 | 97 | 224 | 1.0 | 7.0 | 0.00 | 0.00 | 0.00 | 46 | 1010.1 |
| 20260905191004 | 96 | 323 | 1.0 | 7.0 | 0.00 | 0.00 | 0.00 | 46 | 1010.2 |
| 20260905190504 | 96 | 317 | 1.0 | 7.0 | 0.00 | 0.00 | 0.00 | 46 | 1010.2 |
| 20260905190003 | 96 | 231 | 1.0 | 8.0 | 0.00 | 0.00 | 0.00 | 46 | 1010.2 |
| 20260905185504 | 96 | 293 | 2.0 | 8.0 | 0.00 | 0.00 | 0.00 | 46 | 1010.3 |
| 20260905185004 | 96 | 332 | 1.0 | 7.0 | 0.00 | 0.00 | 0.00 | 50 | 1010.4 |
| 20260905184503 | 96 | 319 | 3.0 | 8.0 | 0.00 | 0.00 | 0.00 | 50 | 1010.5 |
| 20260905183503 | 95 | 89 | 0.0 | 3.0 | 0.00 | 0.00 | 0.00 | 49 | 1010.6 |
| 20260905183004 | 95 | 316 | 0.0 | 3.0 | 0.00 | 0.00 | 0.00 | 49 | 1010.6 |
| 20260905182504 | 95 | 313 | 0.0 | 3.0 | 0.00 | 0.00 | 0.00 | 50 | 1010.7 |
| 20260905182004 | 95 | 330 | 0.0 | 7.0 | 0.00 | 0.00 | 0.00 | 52 | 1010.8 |
| 20260905181004 | 96 | 313 | 1.0 | 5.0 | 0.00 | 0.00 | 0.00 | 50 | 1010.9 |
| 20260905180504 | 96 | 20 | 0.0 | 5.0 | 0.00 | 0.00 | 0.00 | 52 | 1010.9 |
| 20260905175504 | 96 | 232 | 0.0 | 1.0 | 0.00 | 0.00 | 0.00 | 49 | 1010.9 |
| 20260905174504 | 96 | 230 | 0.0 | 3.0 | 0.00 | 0.00 | 0.00 | 50 | 1011.1 |
| 20260905172503 | 95 | 270 | 0.0 | 3.0 | 0.00 | 0.00 | 0.00 | 51 | 1011.1 |
| 20260905171503 | 95 | 165 | 0.0 | 0.0 | 0.00 | 0.00 | 0.00 | 56 | 1011.2 |
| 20260905171004 | 94 | 171 | 0.0 | 0.0 | 0.00 | 0.00 | 0.00 | 56 | 1011.2 |
| 20260905170503 | 94 | 171 | 0.0 | 0.0 | 0.00 | 0.00 | 0.00 | 54 | 1011.2 |
| 20260905170003 | 94 | 181 | 0.0 | 0.0 | 0.00 | 0.00 | 0.00 | 54 | 1011.4 |
| 20260905165504 | 94 | 184 | 0.0 | 1.0 | 0.00 | 0.00 | 0.00 | 55 | 1011.4 |
| 20260905165004 | 94 | 97 | 0.0 | 2.0 | 0.00 | 0.00 | 0.00 | 56 | 1011.4 |
| 20260905164503 | 93 | 49 | 0.0 | 2.0 | 0.00 | 0.00 | 0.00 | 57 | 1011.5 |
| 20260905164003 | 93 | 47 | 0.0 | 0.0 | 0.00 | 0.00 | 0.00 | 57 | 1011.6 |
| 20260905162504 | 92 | 46 | 0.0 | 2.0 | 0.00 | 0.00 | 0.00 | 57 | 1011.7 |
| 20260905162004 | 92 | 56 | 0.0 | 3.0 | 0.00 | 0.00 | 0.00 | 59 | 1011.8 |
| 20260905160004 | 91 | 74 | 0.0 | 0.0 | 0.00 | 0.00 | 0.00 | 60 | 1011.7 |
| 20260905155504 | 91 | 74 | 0.0 | 0.0 | 0.00 | 0.00 | 0.00 | 60 | 1011.9 |
| 20260905154005 | 90 | 74 | 0.0 | 2.0 | 0.00 | 0.00 | 0.00 | 63 | 1011.8 |
| 20260905153504 | 90 | 73 | 0.0 | 1.0 | 0.00 | 0.00 | 0.00 | 62 | 1011.8 |
| 20260905153004 | 89 | 73 | 0.0 | 3.0 | 0.00 | 0.00 | 0.00 | 63 | 1011.9 |
| 20260905152504 | 89 | 73 | 1.0 | 5.0 | 0.00 | 0.00 | 0.00 | 66 | 1012.0 |
| 20260905151504 | 88 | 85 | 1.0 | 5.0 | 0.00 | 0.00 | 0.00 | 67 | 1012.2 |
| 20260905151004 | 88 | 72 | 0.0 | 10.0 | 0.00 | 0.00 | 0.00 | 67 | 1012.4 |
| 20260905145504 | 88 | 40 | 0.0 | 0.0 | 0.00 | 0.00 | 0.00 | 65 | 1012.1 |
| 20260905145004 | 89 | 34 | 0.0 | 0.0 | 0.00 | 0.00 | 0.00 | 61 | 1012.1 |
| 20260905144504 | 89 | 43 | 0.0 | 0.0 | 0.00 | 0.00 | 0.00 | 64 | 1011.9 |
| 20260905144004 | 88 | 51 | 0.0 | 0.0 | 0.00 | 0.00 | 0.00 | 67 | 1011.8 |
| 20260905143504 | 88 | 84 | 0.0 | 0.0 | 0.00 | 0.00 | 0.00 | 67 | 1011.9 |
| 20260905141503 | 86 | 84 | 0.0 | 0.0 | 0.00 | 0.00 | 0.00 | 69 | 1011.8 |
| 20260905141004 | 86 | 99 | 0.0 | 0.0 | 0.00 | 0.00 | 0.00 | 69 | 1011.8 |
| 20260905140504 | 85 | 99 | 0.0 | 0.0 | 0.00 | 0.00 | 0.00 | 71 | 1011.8 |
| 20260905134504 | 84 | 98 | 0.0 | 0.0 | 0.00 | 0.00 | 0.00 | 78 | 1011.6 |
| 20260905133504 | 83 | 98 | 0.0 | 0.0 | 0.00 | 0.00 | 0.00 | 79 | 1011.6 |
| 20260905130503 | 80 | 98 | 0.0 | 0.0 | 0.00 | 0.00 | 0.00 | 89 | 1011.9 |
| 20260905125004 | 77 | 97 | 0.0 | 0.0 | 0.00 | 0.00 | 0.00 | 95 | 1011.9 |
| 20260905124504 | 77 | 96 | 0.0 | 0.0 | 0.00 | 0.00 | 0.00 | 96 | 1011.9 |
| 20260905124004 | 76 | 96 | 0.0 | 0.0 | 0.00 | 0.00 | 0.00 | 97 | 1012.1 |
| 20260905123004 | 74 | 96 | 0.0 | 0.0 | 0.00 | 0.00 | 0.00 | 97 | 1011.9 |
| 20260905121003 | 73 | 96 | 0.0 | 3.0 | 0.00 | 0.00 | 0.00 | 97 | 1011.8 |
| 20260905120504 | 73 | 96 | 1.0 | 5.0 | 0.00 | 0.00 | 0.00 | 97 | 1011.8 |
| 20260905113004 | 73 | 208 | 0.0 | 0.0 | 0.00 | 0.00 | 0.00 | 96 | 1011.4 |
| 20260905112504 | 73 | 208 | 0.0 | 0.0 | 0.00 | 0.00 | 0.00 | 96 | 1011.5 |
| 20260905112004 | 73 | 208 | 0.0 | 0.0 | 0.00 | 0.00 | 0.00 | 96 | 1011.5 |
| 20260905111504 | 73 | 208 | 0.0 | 0.0 | 0.00 | 0.00 | 0.00 | 96 | 1011.5 |
| 20260905110503 | 73 | 208 | 0.0 | 0.0 | 0.00 | 0.00 | 0.00 | 96 | 1011.4 |
| 20260905110004 | 73 | 208 | 0.0 | 0.0 | 0.00 | 0.00 | 0.00 | 96 | 1011.4 |
| 20260905105504 | 73 | 208 | 0.0 | 0.0 | 0.00 | 0.00 | 0.00 | 96 | 1011.4 |
| 20260905105004 | 73 | 208 | 0.0 | 0.0 | 0.00 | 0.00 | 0.00 | 96 | 1011.4 |
| 20260905104504 | 73 | 208 | 0.0 | 0.0 | 0.00 | 0.00 | 0.00 | 96 | 1011.3 |
| 20260905103504 | 73 | 208 | 0.0 | 0.0 | 0.00 | 0.00 | 0.00 | 95 | 1011.3 |
| 20260905102004 | 73 | 208 | 0.0 | 0.0 | 0.00 | 0.00 | 0.00 | 95 | 1011.4 |
| 20260905100504 | 74 | 208 | 0.0 | 0.0 | 0.00 | 0.00 | 0.00 | 95 | 1011.4 |
| 20260905100004 | 74 | 208 | 0.0 | 0.0 | 0.00 | 0.00 | 0.00 | 95 | 1011.3 |